Hourly Weather Norwich

Today, 3 December, Thursday

Time Temperature Precipitation Wind Pressure Humidity
00:00 +3°C° 0 mm 3 mps 752 mmHg 91%
01:00 +3°C° 0 mm 4 mps 751 mmHg 88%
02:00 +3°C° 0 mm 4 mps 750 mmHg 86%
03:00 +3°C° 0 mm 4 mps 749 mmHg 84%
04:00 +3°C° 0 mm 4 mps 748 mmHg 84%
05:00 +3°C° 0 mm 4 mps 747 mmHg 84%
06:00 +3°C° 0 mm 4 mps 746 mmHg 85%
07:00 +3°C° 0 mm 4 mps 745 mmHg 85%
08:00 +2°C° 0 mm 5 mps 744 mmHg 85%
09:00 +2°C° 0 mm 5 mps 743 mmHg 85%
10:00 +3°C° 0.3 mm 6 mps 741 mmHg 87%
11:00 +3°C° 0.3 mm 6 mps 740 mmHg 89%
12:00 +4°C° 0.3 mm 7 mps 739 mmHg 91%
13:00 +4°C° 1.6 mm 8 mps 737 mmHg 91%
14:00 +4°C° 1.6 mm 8 mps 736 mmHg 92%
15:00 +5°C° 1.6 mm 8 mps 734 mmHg 92%
16:00 +5°C° 2.1 mm 9 mps 733 mmHg 92%
17:00 +5°C° 2.1 mm 9 mps 732 mmHg 91%
18:00 +5°C° 2.1 mm 9 mps 731 mmHg 91%
19:00 +5°C° 1.4 mm 8 mps 730 mmHg 90%
20:00 +5°C° 1.4 mm 8 mps 730 mmHg 89%
21:00 +5°C° 1.4 mm 7 mps 729 mmHg 88%
22:00 +5°C° 0.3 mm 6 mps 728 mmHg 89%
23:00 +5°C° 0.3 mm 5 mps 728 mmHg 90%

Tomorrow, 4 December, Friday

Time Temperature Precipitation Wind Pressure Humidity
00:00 +5°C° 0.3 mm 4 mps 727 mmHg 92%
01:00 +5°C° 0.8 mm 4 mps 727 mmHg 91%
02:00 +5°C° 0.8 mm 4 mps 726 mmHg 91%
03:00 +5°C° 0.8 mm 5 mps 725 mmHg 91%
04:00 +4°C° 0.3 mm 6 mps 726 mmHg 90%
05:00 +3°C° 0.3 mm 7 mps 726 mmHg 90%
06:00 +2°C° 0.3 mm 8 mps 726 mmHg 89%
07:00 +3°C° 0.2 mm 7 mps 726 mmHg 88%
08:00 +3°C° 0.2 mm 7 mps 726 mmHg 87%
09:00 +3°C° 0.2 mm 7 mps 727 mmHg 85%
10:00 +3°C° 0 mm 7 mps 727 mmHg 83%
11:00 +4°C° 0 mm 7 mps 728 mmHg 80%
12:00 +4°C° 0 mm 7 mps 729 mmHg 77%
13:00 +4°C° 0.1 mm 8 mps 730 mmHg 77%
14:00 +4°C° 0.1 mm 8 mps 730 mmHg 76%
15:00 +4°C° 0.1 mm 8 mps 731 mmHg 76%
16:00 +3°C° 0 mm 7 mps 731 mmHg 79%
17:00 +3°C° 0 mm 6 mps 732 mmHg 83%
18:00 +2°C° 0 mm 5 mps 733 mmHg 86%
19:00 +2°C° 0.1 mm 5 mps 733 mmHg 88%
20:00 +3°C° 0.1 mm 4 mps 734 mmHg 89%
21:00 +3°C° 0.1 mm 4 mps 735 mmHg 91%
22:00 +1°C° 0 mm 4 mps 736 mmHg 90%
23:00 +2°C° 0 mm 3 mps 736 mmHg 90%

Day after tomorrow, 5 December, Saturday

Time Temperature Precipitation Wind Pressure Humidity
00:00 +2°C° 0 mm 3 mps 737 mmHg 89%
01:00 +2°C° 0 mm 3 mps 738 mmHg 88%
02:00 +2°C° 0 mm 3 mps 738 mmHg 87%
03:00 +2°C° 0 mm 3 mps 739 mmHg 85%
04:00 +2°C° 0 mm 3 mps 739 mmHg 86%
05:00 +3°C° 0 mm 3 mps 740 mmHg 87%
06:00 +3°C° 0 mm 4 mps 740 mmHg 88%
07:00 +3°C° 0 mm 3 mps 741 mmHg 88%
08:00 +3°C° 0 mm 3 mps 741 mmHg 89%
09:00 +3°C° 0 mm 3 mps 742 mmHg 89%
10:00 +4°C° 0 mm 3 mps 742 mmHg 85%
11:00 +4°C° 0 mm 3 mps 742 mmHg 81%
12:00 +6°C° 0 mm 2 mps 743 mmHg 77%
13:00 +6°C° 0 mm 2 mps 743 mmHg 78%
14:00 +6°C° 0 mm 2 mps 743 mmHg 78%
15:00 +5°C° 0 mm 2 mps 743 mmHg 79%
16:00 +5°C° 0 mm 2 mps 744 mmHg 79%
17:00 +6°C° 0 mm 1 mps 744 mmHg 78%
18:00 +6°C° 0 mm 1 mps 745 mmHg 78%
19:00 +5°C° 0 mm 1 mps 745 mmHg 79%
20:00 +5°C° 0 mm 1 mps 745 mmHg 79%
21:00 +4°C° 0 mm 1 mps 745 mmHg 80%
22:00 +4°C° 0 mm 1 mps 745 mmHg 81%
23:00 +4°C° 0 mm 1 mps 745 mmHg 83%

6 December, Sunday

Time Temperature Precipitation Wind Pressure Humidity
00:00 +3°C° 0 mm 2 mps 745 mmHg 84%
01:00 +2°C° 0 mm 2 mps 745 mmHg 85%
02:00 +2°C° 0 mm 2 mps 745 mmHg 85%
03:00 +2°C° 0 mm 2 mps 745 mmHg 86%
04:00 +2°C° 0 mm 2 mps 746 mmHg 87%
05:00 +2°C° 0 mm 2 mps 746 mmHg 87%
06:00 +1°C° 0 mm 2 mps 746 mmHg 87%
07:00 +2°C° 0 mm 2 mps 746 mmHg 87%
08:00 +2°C° 0 mm 2 mps 747 mmHg 86%
09:00 +2°C° 0 mm 2 mps 747 mmHg 86%
10:00 +3°C° 0 mm 2 mps 747 mmHg 83%
11:00 +4°C° 0 mm 2 mps 747 mmHg 79%
12:00 +5°C° 0 mm 2 mps 748 mmHg 76%
13:00 +5°C° 0 mm 2 mps 748 mmHg 78%
14:00 +5°C° 0 mm 1 mps 748 mmHg 80%
15:00 +5°C° 0 mm 1 mps 748 mmHg 82%
16:00 +5°C° 0 mm 1 mps 748 mmHg 84%
17:00 +4°C° 0 mm 1 mps 749 mmHg 85%
18:00 +4°C° 0 mm 1 mps 749 mmHg 86%
19:00 +3°C° 0 mm 0 mps 749 mmHg 86%
20:00 +2°C° 0 mm 0 mps 749 mmHg 87%
21:00 +2°C° 0 mm 0 mps 749 mmHg 87%
22:00 +2°C° 0 mm 0 mps 749 mmHg 87%
23:00 +3°C° 0 mm 1 mps 749 mmHg 87%

7 December, Monday

Time Temperature Precipitation Wind Pressure Humidity
00:00 +3°C° 0 mm 1 mps 749 mmHg 87%
01:00 +3°C° 0 mm 1 mps 749 mmHg 88%
02:00 +2°C° 0 mm 2 mps 749 mmHg 89%
03:00 +1°C° 0 mm 2 mps 749 mmHg 90%
04:00 +1°C° 0 mm 2 mps 748 mmHg 90%
05:00 +1°C° 0 mm 2 mps 748 mmHg 90%
06:00 +1°C° 0 mm 2 mps 748 mmHg 90%
07:00 +1°C° 0 mm 2 mps 748 mmHg 92%
08:00 +1°C° 0 mm 2 mps 748 mmHg 93%
09:00 +1°C° 0 mm 2 mps 748 mmHg 94%
10:00 +2°C° 0 mm 2 mps 748 mmHg 91%
11:00 +3°C° 0 mm 2 mps 748 mmHg 88%
12:00 +4°C° 0 mm 2 mps 748 mmHg 86%
13:00 +4°C° 0 mm 2 mps 748 mmHg 88%
14:00 +3°C° 0 mm 2 mps 747 mmHg 89%
15:00 +3°C° 0 mm 2 mps 747 mmHg 91%
16:00 +2°C° 0 mm 2 mps 747 mmHg 92%
17:00 +2°C° 0 mm 2 mps 747 mmHg 93%
18:00 +1°C° 0 mm 2 mps 747 mmHg 93%
19:00 +1°C° 0 mm 2 mps 747 mmHg 93%
20:00 +1°C° 0 mm 2 mps 747 mmHg 93%
21:00 +2°C° 0 mm 1 mps 748 mmHg 92%
22:00 +2°C° 0 mm 1 mps 748 mmHg 92%
23:00 +2°C° 0 mm 1 mps 748 mmHg 91%

8 December, Tuesday

Time Temperature Precipitation Wind Pressure Humidity
00:00 +2°C° 0 mm 1 mps 748 mmHg 91%
01:00 +3°C° 0 mm 1 mps 748 mmHg 91%
02:00 +3°C° 0 mm 1 mps 748 mmHg 91%
03:00 +3°C° 0 mm 1 mps 748 mmHg 91%
04:00 +3°C° 0 mm 1 mps 748 mmHg 91%
05:00 +3°C° 0 mm 2 mps 749 mmHg 91%
06:00 +3°C° 0 mm 2 mps 749 mmHg 91%
07:00 +3°C° 0 mm 2 mps 750 mmHg 90%
08:00 +4°C° 0 mm 2 mps 750 mmHg 89%
09:00 +3°C° 0 mm 3 mps 751 mmHg 87%
10:00 +5°C° 0 mm 2 mps 751 mmHg 85%
11:00 +5°C° 0 mm 2 mps 751 mmHg 83%
12:00 +6°C° 0 mm 2 mps 752 mmHg 81%
13:00 +5°C° 0 mm 2 mps 752 mmHg 82%
14:00 +5°C° 0 mm 2 mps 752 mmHg 83%
15:00 +5°C° 0 mm 2 mps 753 mmHg 84%
16:00 +4°C° 0 mm 2 mps 753 mmHg 85%
17:00 +4°C° 0 mm 2 mps 753 mmHg 86%
18:00 +3°C° 0 mm 2 mps 754 mmHg 86%
19:00 +3°C° 0 mm 2 mps 754 mmHg 86%
20:00 +3°C° 0 mm 2 mps 755 mmHg 86%
21:00 +3°C° 0 mm 2 mps 755 mmHg 86%
22:00 +3°C° 0 mm 2 mps 755 mmHg 86%
23:00 +3°C° 0 mm 2 mps 755 mmHg 85%
Show more

We Need Your Consent

Meteoprog and our Service Providers may store and access personal data such as cookies, device identifiers or other similar technologies on your device and process such data to personalise content and ads, as well as provide social media features and to analyse the traffic.

  • Store and/or access information on your device

    Cookies, device identifiers or other information can be stored or accessed on your device for the purposes indicated above.

  • Personalised ads and content, ad and content measurement, audience insights, and products development

    Ads and content can be personalised based on a profile. More data can be added to better personalise ads and content. Ad and content performance can be measured. Insights about the audience who saw the ads and content can be derived. Such data can be used to develop or improve user’s experience, systems and software.

By clicking ‘I Agree’ you will allow the use of indicated cookies, device identifiers, web beacons or other similar technologies. Your settings can be changed in the browser on your device.

For certain purposes, legitimate interests may be relied on, rather than consent. You can read more about this in our Privacy and Cookie Policy.